Location: Breux
(46.3269°N, 3.2993°E)
Time: 15:14:28
(UTC+00:00)

Cosmos 2360 Rocket - Pass Details

Date: 09 April 2020
Orbit: 834 x 845 km, 71.0° (Epoch: 27 May)

Event Time Altitude Azimuth Distance (km) Brightness Sun altitude
Rises 23:13:36 0° 336° (NNW) 3,394 6.3 -35.1°
Reaches altitude 10° 23:16:07 10° 341° (NNW) 2,457 5.4 -35.2°
Enters shadow 23:19:50 38° 6° (N) 1,257 3.4 -35.3°
